Regional Weather Roundup
Issued by NWS Green Bay, WI

Home | Current Version | Previous Version | Text Only | Print | Product List | Glossary On
Versions: 1 2 3 4 5 6 7 8 9 10 11 12 13 14 15 16 17 18 19 20 21 22 23 24 25 26 27 28 29 30 31 32 33 34 35 36 37 38 39 40 41 42 43 44 45 46 47 48 49 50
000
ASUS43 KGRB 281659
RWRGRB

NORTH-CENTRAL AND NORTHEAST WISCONSIN REGIONAL WEATHER ROUNDUP
NATIONAL WEATHER SERVICE GREEN BAY WI
1200 PM CDT SAT MAR 28 2015

WIZ005-009-010>012-018-019-281800-
NORTH CENTRAL WISCONSIN

CITY           SKY/WX    TMP DP  RH WIND       PRES   REMARKS
IRONWOOD       SUNNY     34   9  35 CALM      30.18F
MANITOWISH WTR NOT AVBL
ARBOR VITAE    NOT AVBL
EAGLE RIVER    NOT AVBL
LAND O LAKES   NOT AVBL
RHINELANDER    SUNNY     33   4  29 VRB5      30.21F
PHILLIPS       SUNNY     35   9  34 SW9       30.21F
ANTIGO         NOT AVBL
TOMAHAWK       NOT AVBL
MERRILL        NOT AVBL
$$

WIZ013-073-281800-
NORTHEAST WISCONSIN

CITY           SKY/WX    TMP DP  RH WIND       PRES   REMARKS
IRON MOUNTAIN  SUNNY     30   8  39 S7        30.23F
MARINETTE      SUNNY     30  12  47 CALM      30.30F
$$

WIZ017-030-035>037-045-281800-
CENTRAL WISCONSIN

CITY           SKY/WX    TMP DP  RH WIND       PRES   REMARKS
MEDFORD        NOT AVBL
WAUSAU         SUNNY     34  10  37 S6        30.24F
MOSINEE        SUNNY     32  12  43 S8        30.26F
MARSHFIELD     SUNNY     36   8  31 CALM      30.26S
WISC RAPIDS    SUNNY     36   4  26 VRB3      30.29F
STEVENS POINT  NOT AVBL
WAUPACA        NOT AVBL
SHAWANO        NOT AVBL
CLINTONVILLE   SUNNY     32  12  43 SW8       30.30F
$$

WIZ038-039-048-051-281800-
FOX VALLEY

CITY           SKY/WX    TMP DP  RH WIND       PRES   REMARKS
NWS GREEN BAY  SUNNY     32  19  58 S7        30.31F
APPLETON       SUNNY     32  12  43 SW9       30.31F
OSHKOSH        SUNNY     32  13  45 CALM      30.31F
FOND DU LAC    SUNNY     34  11  38 VRB6      30.31F
$$

WIZ022-050-052-281800-
EAST CENTRAL WISCONSIN

CITY           SKY/WX    TMP DP  RH WIND       PRES   REMARKS
STURGEON BAY   SUNNY     28  12  50 SW6       30.33F
MANITOWOC      NOT AVBL
SHEBOYGAN      SUNNY     32  15  49 S5        30.33F
$$

LMZ563-521-522-541>543-281800-
LAKESHORE

STATION/POSITION TIME  TEMP    WIND        PRES    VSBY  WAVE
                       AIR SEA DIR/SP/G                  HT/PER
                 (UTC) (F)     (DEG/KT/KT) (MB)    (MI)  (FT/S)
SHEBOYGAN LKSHOR 1600   27     110/  3/  4 1028.8R
KEWAUNEE LKSHORE 1600   27     150/  6/  8 1026.4R
NORTHPORT PIER   1600   24     330/  4/ 10 1027.1R
SISTER BAY LKSHO 1600   31     320/  7/  7   N/A
CHAMBERS ISLAND  1600   27     180/  5/ 10 1027.1F
MENOMINEE LKSHOR 1600   25     130/ 11     1026.9F
$$


USA.gov is the U.S. government's official web portal to all federal, state and local government web resources and services.